Rbgn^[z[y[W
メイン
   新天体発見情報
     Comet C/2020 Y3 (ATLAS)
投稿するにはまず登録を

スレッド表示 | 新しいものから 前のトピック | 次のトピック | 下へ
投稿者 スレッド
佐藤裕久
投稿日時: 2021-1-25 18:27
モデレータ
登録日: 2005-6-12
居住地: 日本
投稿: 2180
オンライン
Comet C/2020 Y3 (ATLAS)

Larry Denneauの通報によると、2020年12月28日、ハワイ Mauna Loaにある小惑星地球衝突最終
警報システム Asteroid Terrestrial-impact Last Alert System (ATLAS)調査プログラムのコー
スに0.5-m f/2 Schmidt反射望遠鏡で得たCCD画像からシーイングが4".2で少なくとも5".4の拡散
したコマのある(尾はない)彗星を発見した。
小惑星センターのPCCP webpageに公表後、佐藤英貴氏(東京都文京区, 2020年12月29.5日UT、60秒
露出14枚のスタック, 0.43-m f/6.8 アストログラフ, Mayhill近郊, ニューメキシコ州, 遠隔操作:
強く集光した8"のコマが見えるが尾はない。5".7の円形範囲で測定した光度は18.4等であった)や
佐藤裕久 (福島県須賀川市)が測定・報告, 池村俊彦氏が観測, 新城観測所, 2021年1月13.84-
13.87日, 60秒露出12枚のスタック, 0.35-m f/5 反射望遠鏡;  強く集光した約9"のコマとp.a.
約270°に向かって約12"の尾が見える。全光度は17.3等。14.84-14.86日,  60秒露出12枚の
スタック; 強く集光した約9" x 12" のコマとp.a. 約270°に伸びて見える)らCCD位置観測者に
よって彗星状と観測された。

彗星機能の報告は次の通り:

OC   Date        Reporter           Coma    Tail    PA          Exposures
807  2020-12-29  T. Linder          4"     10"      290-315
H06  2020-12-29  H. Sato            8"                           14x60s
W85  2020-12-30  P. Breitenstein    6"     10"      260           5x80
K91  2020-12-30  L. Kurtze          6"     13"      250          10x80s
W88  2020-12-31  B. Lutkenhoner     6"

発見位置は次のとおり、

     2020 UT             R.A. (2000) Decl.       Mag.
     Dec. 28.63822   14 08 02.22   -18 12 39.4   18.4
          28.64841   14 08 03.08   -18 12 29.6   18.5
          28.65441   14 08 03.56   -18 12 21.5   17.5
          28.66178   14 08 04.22   -18 12 14.4   18.7

MPCの準放物線軌道要素、位置推算表は次のとおり、

Orbital elements:
    C/2020 Y3 (ATLAS)                                                           
T 2020 Dec. 3.32052 TT                                  Rudenko                 
q   1.9975406            (2000.0)            P               Q                  
z  +0.0085040      Peri.  341.95980     -0.93941860     -0.28096454             
                   Node   191.40713     -0.01677134     -0.53445471             
e   0.9830129      Incl.   83.09698     -0.34236154     +0.79713053             
From 99 observations 2020 Dec. 28-2021 Jan. 14.                                 
                                                                                
Ephemeris:
Date    TT    R. A. (2000) Decl.     Delta      r    Elong.  Phase   m1
2020 12 16    13 49 07.8 -21 27 31   2.4558  2.0034    51.8    22.7  18.5
...
2020 12 31    14 11 21.0 -17 30 43   2.2724  2.0252    63.0    25.6  18.3
...
2021 01 08    14 22 01.3 -14 53 34   2.1679  2.0432    69.5    26.8  18.3
...
2021 01 14    14 29 24.1 -12 38 32   2.0882  2.0595    74.7    27.4  18.2
2021 01 15    14 30 34.5 -12 14 27   2.0750  2.0625    75.5    27.5  18.2
2021 01 16    14 31 43.8 -11 49 54   2.0617  2.0655    76.4    27.6  18.2
...
2021 01 22    14 38 17.5 -09 12 11   1.9829  2.0849    81.8    27.9  18.2
...
2021 01 30    14 45 57.2 -05 12 14   1.8820  2.1142    89.3    27.8  18.1
...
2021 02 14    14 56 20.9 +03 57 00   1.7188  2.1788   103.9    26.1  18.1

(MPEC 2021-A195、CBET 4912)

スレッド表示 | 新しいものから 前のトピック | 次のトピック | トップ

投稿するにはまず登録を
 
© 1999 Tsutomu Seki.